Weather in Oktyabrskoe

Russia / Tomsk District     56°43′30″N   85°26′05″E
temp.,
°C
wind,
m/s
gust,
m/s
humid.,
%
clouds,
%
prec.,
mm/h
press.,
hPa
HPBL,
m
16 may, sun
sun1601:00+10nne1197100 14.6 101718
04:00+9ene249954 0.0 1015120
07:00+9e359392 0.0 1015239
10:00+11ene3489100 0.1 1014492
13:00+10e3492100 5.3 1013350
16:00+11ene3488100 0.3 1013539
19:00+8ene3694100 0.4 1013277
22:00+8ene269397 0.0 1014306
17 may, mon
mon1701:00+8ne249298 0.0 1015143
04:00+7nne249095 0.0 1014104
07:00+8nne248360 0.0 1016188
10:00+13n1261100 0.0 1016759
13:00+14nw2356100 0.0 10151485
16:00+13wnw3466100 0.0 1015966
19:00+12nw2478100 0.1 1015206
22:00+10sse2595100 1.2 1012141
18 may, tue
tue1801:00+10sse2895100 2.9 1010256
04:00+11s2896100 0.7 1008290
07:00+12s2698100 0.8 1005293
10:00+13wsw3898100 1.1 1003577
13:00+13w259898 2.6 1003384
16:00+16nw4583100 0.9 1002920
19:00+9nne3796100 3.6 1004407
22:00+7nne3794100 0.0 1007654
19 may, wed
wed1901:00+6nne4994100 0.1 1008579
04:00+6n3991100 0.0 1009466
07:00+3nne41180100 0.0 1011380
10:00+6nne5851100 0.0 10121078
13:00+9n58325 0.0 10121830
16:00+9n68315 0.0 10132369
19:00+9n483849 0.0 10132649
22:00+3nnw285999 0.0 1015240
20 may, thu
thu2001:00+1nnw3106515 0.0 1016366
04:00−2nnw29735 0.0 1017219
07:00+1nnw39565 0.0 1018420
10:00+5nnw563398 0.0 10182331
13:00+8nnw4528100 0.0 10182655
16:00+9nnw452799 0.0 10182673
19:00+9nw333089 0.0 10182120
22:00+4wsw2253100 0.0 101925